Погода Екеже

Погода Екеже : погода сейчас, прогноз погоды и архив. Всё, что Вы хотите узнать о погоде Екеже!

Хотите узнать прогноз погоды Екеже? Тогда Вам сюда: Погода Екеже

Поиск расширенной информации на нашем сайте:

Другие новости

Новости СМИ2

Главная страница сайта

Новости сайта

03.07.2017

Напоминаем, что на нашем специализированном сайте Метеоцентр.Азия вы можете получить высокодетализированные автоматические прогнозы погоды по пунктам России, СНГ и мира в авиационном формате (включающие направление и скорость ветра, видимость, явления погоды, количество и форму облачности, нижнюю и верхнюю границу облачности).

Рекомендуем: Скорый ремонт компьютеров в можайске длится не больше 2 часов.

Погода Екеже - сегодня

Время (UTC), дата Ветер
(°,м/с) 
Видим.   Явления Облачность Т
(°С)
Тd
(°С)
f(%) Тe
(°С)
Pmin
(гПа)
dP
(гПа)
Po
(мм)
O2
(г/м3)
Тmin Tmax R s Состояние
почвы
09 16.09.17 050 (СВ) 20000 м    ясно 
+30.8 +12.6 33 +35  1018.7  -0.5  758  272           
12 16.09.17 050 (СВ) 20000 м    ясно 
+31.6 +12.8 32 +36  1017.8  -0.9  758  272           
15 16.09.17 050 (СВ) 20000 м    ясно 
+27.4 +11.1 36 +30  1018.5  0.6  759  276    +32       
18 16.09.17 тихо ()   20000 м    ясно 
+19.2 +6.7 44 +19  1019.2  0.6  759  285    +32       
21 16.09.17 тихо ()   20000 м    ясно 
+15 +4.8 50 +15  1019.6  0.2  760  289           
03 17.09.17 тихо ()   20000 м    ясно 
+13.6 +11.3 86 +16  1019.6  0.8  760  289           
06 17.09.17 360 (С) 20000 м    ясно 
+27.6 +12.1 38 +28  1019.8  0.6             
09 17.09.17 340 (С) 20000 м    ясно 
+32 +10 26 +33  1018.6  -1.2  759  272           
12 17.09.17 340 (С) 20000 м    ясно 
+33.2 +9.9 24 +34  1017.3  -1.2  758  271           
15 17.09.17 тихо ()   20000 м    ясно 
+27.6 +7 27 +28  1017.3  -0.1  758  276    +33.6       
18 17.09.17 тихо ()   20000 м    ясно 
+24.2 +6.1 31 +24  1017.7  0.3  758  280    +33.6       
21 17.09.17 тихо ()   20000 м    ясно 
+19.6 +4.8 38 +20  1017.4  -0.2  758  284           
03 18.09.17 020 (С) 20000 м    ясно 
+13.7 +3.6 50 +14  1018.9  1.2  759  291  +13.5        полностью
покрыта
пылью 
06 18.09.17 020 (С) 20000 м    ясно 
+28.4 +9 30 +28  1019.5  760  276  +13.5         
09 18.09.17 360 (С) 20000 м    ясно 
+32.8 +6.2 19 +33  1018.5  -0.9  759  272           
12 18.09.17 360 (С) 20000 м    ясно 
+33 +5 17 +33  1017.5  -1  758  272           
15 18.09.17 020 (С) 20000 м    ясно 
+26.4 +1.7 20 +26  1017.9  0.2  758  278    +33.4       
18 18.09.17 тихо ()   20000 м    ясно 
+20.4 +0.2 26 +20  1018.5  0.5  759  284    +33.4       
21 18.09.17 тихо ()   20000 м    ясно 
+16.2 -0.9 31 +16  1018.5  -0.2  759  289           
03 19.09.17 тихо ()   20000 м    ясно 
+14.4 +2.9 46 +14  1019.5  1.1  759  290           
06 19.09.17 050 (СВ) 20000 м    ясно 
+29.6 +9.8 29 +30  1019.9  0.8  760  275  +12.5         
09 19.09.17 360 (С) 20000 м    ясно 
+33.4 +7.4 20 +33  1018.7  -1.1  759  271           
12 19.09.17 360 (С) 20000 м    ясно 
+33.8 +6.2 18 +34  1017.4  -1.3  758  271           
15 19.09.17 тихо ()   20000 м    ясно 
+27.2 +4 23 +27  1017.9  0.3  758  277    +34.2       
18 19.09.17 тихо ()   20000 м    ясно 
+22 +6.5 37 +22  1018.5  0.5  759  282    +34.2       
Время (UTC), дата Ветер
(°,м/с) 
Видим.   Явления Облачность Т
(°С)
Тd
(°С)
f(%) Тe
(°С)
Pmin
(гПа)
dP
(гПа)
Po
(мм)
O2
(г/м3)
Тmin Tmax R s Состояние
почвы

Для получения пояснительной информации подведите курсор к названию столбца.

ПОГОДА Екеже - архив

Всё, что Вы хотите узнать о погоде Екеже - удобно и подробно!

Выберите нужную дату (начиная с 1 января 2015* года) и нажмите кнопку "Найти".
Будут отображены архивные сводки погоды по пункту Екеже, начиная с указанной даты.


Отображать данные в формате CSV (для использования в таблицах Excel)


Внимание! Наш архив погоды предназначен исключительно для личного некоммерческого использования в познавательных целях. Если Вам необходимы официальные справки о состоянии погоды (для производственных, юридических, коммерческих и т.п. целей), обращайтесь в органы Росгидромета.

*Примечание: данная дата относится к архиву по метеостанциям СССР (Россия, СНГ, Балтия).
Архив по метеостанциям Зарубежной Европы и Азии (кроме Китая) хранится 10 дней, по другим регионам земного шара (Китай, Африка, Америка, Австралия, Океания) - 1 день.

Екеже - район местоположения метеостанции


Название, широта, долгота, высота метеостанции:
Екеже 41°ш. 57.8°д. 308 м над ур. моря [Туркменистан]

Дополнительная информация

В oтличие oт бoльшинства пoгoдных сайтoв мы публикуем пoдрoбную метеoинфoрмацию в детальнoм прoфессиoнальнoм фoрмате.

Характеристики температуры и влажнoсти вoздуха измеряются на высoте 2 м в тени вдали oт зданий и деревьев.
Скoрoсть ветра измеряется на высoте 10 м (на урoвне рoста челoвека скoрoсть ветра ниже в 1.5-2 раза). Если метеoстанция нахoдится в гoрoде или в лесу, тo скoрoсть ветра занижена на 2-4 м/с пo сравнению с oткрытым местoм. Скoрoсть ветра над акватoриями крупных рек и oзёр, а также на вершинах хoлмoв на 2-5 м/с выше, чем в oбычных услoвиях.
Атмoсфернoе давление в разных тoчках местнoсти мoжет значительнo oтличаться oт давления на метеoстанции, в зависимoсти oт услoвий рельефа (при пoдъёме на 10 м давление пoнижается примернo на 1 мм рт.ст.).